Theta_e
338 339 338 337 336 336 335 334 333 334 333 321 315 317 317 319 323 326 328 328 330 331 330 331 332 333 334 334 333 329 322 318 322 327 326 321 322 328 331 331 332 331 330 330 329 328 328 329 330 328 326 325 326 327 327 328 329 329 328 326 324 322
338 339 339 337 337 337 336 334 333 335 332 319 317 323 325 328 329 330 329 329 330 330 330 332 333 334 334 332 327 322 318 316 316 320 323 320 320 324 328 331 332 332 331 331 331 331 331 330 330 330 328 327 327 328 328 328 329 330 330 328 326 325
338 338 338 337 337 337 336 335 334 335 331 322 324 330 330 331 332 331 330 330 330 329 331 333 334 334 330 326 322 319 318 317 315 315 318 320 319 320 324 329 331 332 332 332 331 331 332 332 331 331 331 330 330 329 328 329 330 330 330 329 329 327
336 335 336 337 337 337 337 337 335 335 332 328 330 331 330 331 332 332 331 330 329 328 331 332 332 330 324 321 321 320 319 318 316 316 316 318 319 319 321 325 329 331 332 332 331 331 332 333 332 332 333 332 331 330 329 329 329 330 330 330 329 328
335 335 335 335 336 335 336 337 335 334 332 328 326 326 329 331 332 332 331 329 326 326 329 330 327 324 321 322 322 320 319 319 318 317 316 316 317 319 319 322 325 328 330 330 329 329 330 332 332 333 334 333 331 330 329 329 329 329 329 329 329 328
334 335 334 334 335 335 335 335 334 333 332 326 322 324 327 330 332 332 331 329 326 325 327 327 324 322 321 323 322 321 320 319 318 318 317 315 315 317 318 320 322 323 325 325 324 324 326 330 332 333 334 333 332 330 330 330 329 329 329 329 329 328
335 334 334 334 335 335 335 335 334 333 334 330 326 324 325 329 332 333 331 329 329 327 327 325 322 322 323 323 322 321 320 319 319 319 318 317 316 316 315 318 321 321 320 321 321 321 322 326 330 333 333 333 332 330 330 330 329 329 329 329 329 328
335 334 334 334 335 336 335 335 334 334 334 331 328 325 324 329 332 333 331 330 330 329 328 325 323 323 323 324 323 322 321 320 320 320 319 319 318 317 317 319 321 319 318 319 321 321 321 323 327 332 333 333 332 331 330 330 330 329 329 330 330 330
334 334 334 334 335 336 335 335 334 334 334 332 329 324 323 327 330 333 332 330 330 329 327 326 324 324 324 324 323 323 323 322 322 321 321 321 320 320 320 321 321 320 319 319 322 323 323 323 325 331 333 332 332 331 330 330 329 329 330 331 331 330
333 333 333 333 335 335 335 336 334 335 335 333 330 325 323 324 327 331 332 330 329 327 327 325 325 324 325 324 323 324 325 325 326 324 323 322 323 323 322 322 322 324 323 320 323 325 325 325 326 329 331 331 331 330 329 329 329 330 330 331 331 330
332 333 333 333 334 335 336 336 335 335 335 333 331 328 325 324 325 330 332 330 328 326 327 326 325 325 325 325 325 326 327 327 328 328 327 325 324 325 325 325 326 327 325 322 325 326 326 327 327 328 329 330 330 329 329 328 329 330 330 330 330 330
332 332 332 332 333 334 335 335 334 335 335 332 330 327 325 327 329 331 332 329 327 326 327 327 326 326 327 328 328 329 329 328 328 328 329 328 327 326 327 328 328 328 327 326 326 327 328 327 327 328 328 329 329 329 329 328 329 330 330 330 330 330
331 331 331 331 332 333 334 334 334 335 333 330 326 325 328 331 332 332 331 329 326 326 327 328 328 328 328 329 329 329 329 328 328 327 327 328 328 328 328 328 328 328 328 328 328 329 329 328 328 328 328 329 329 329 329 328 329 329 329 330 330 330
331 330 330 330 331 332 334 333 334 333 330 327 325 327 331 332 332 331 330 329 326 327 328 329 329 329 329 329 328 329 329 328 328 327 326 327 328 327 327 327 327 327 327 327 328 329 329 329 329 329 329 329 329 329 329 328 329 328 329 330 330 329
331 330 330 331 332 334 334 333 332 330 327 325 325 329 331 331 330 330 330 328 327 328 329 329 329 330 330 328 328 329 329 329 328 327 327 327 327 327 328 327 326 326 325 325 327 329 329 329 330 330 330 329 329 329 328 328 328 328 330 330 329 328
332 332 332 333 334 335 333 331 329 327 325 325 325 329 331 329 329 329 329 329 328 329 330 329 329 330 330 329 329 329 329 328 328 328 328 327 327 328 328 327 327 326 325 325 326 328 329 329 330 330 330 329 329 328 328 328 327 328 330 330 328 328
333 334 334 335 335 334 332 329 327 326 326 326 326 329 330 328 328 328 329 329 329 329 330 328 328 329 329 329 328 328 328 328 328 328 327 327 327 327 328 327 327 327 326 325 325 327 329 329 329 329 329 329 328 327 327 327 326 328 329 329 328 329
336 335 335 336 334 333 331 329 328 328 328 328 329 330 330 328 328 328 328 329 329 330 328 327 327 328 329 329 328 327 327 327 328 327 326 326 326 327 326 325 325 325 326 325 324 326 329 329 328 328 329 328 327 327 326 326 326 327 328 328 329 328
337 336 336 335 334 333 332 330 330 330 330 330 330 330 330 328 327 327 328 328 329 329 327 327 328 329 329 328 328 326 326 327 327 326 326 325 325 326 325 323 323 323 325 325 324 325 327 328 327 327 328 327 327 326 326 326 326 327 328 328 329 327
338 336 334 334 334 334 332 331 332 331 330 330 329 330 330 327 326 327 328 328 328 327 327 328 328 329 328 327 327 326 325 326 326 326 326 326 326 326 325 324 323 324 324 325 324 324 326 327 326 327 327 327 327 327 327 326 326 327 328 329 329 327
337 335 334 335 334 334 333 332 331 330 330 329 329 329 328 326 326 327 328 327 326 326 327 328 328 328 328 326 326 326 325 325 326 326 327 327 326 326 326 325 324 324 324 325 325 325 326 326 326 327 327 328 328 328 327 327 327 328 329 329 329 328
336 335 334 334 334 334 334 332 330 329 329 328 327 327 326 326 327 327 327 326 326 327 328 328 328 328 327 327 327 327 326 326 326 327 327 327 327 326 326 325 325 323 323 325 325 325 326 327 327 327 327 328 328 328 328 328 328 328 328 328 328 328
335 334 334 334 334 334 333 331 330 328 328 328 326 326 326 325 325 326 325 325 326 328 328 328 327 327 328 328 327 327 327 327 327 328 327 327 326 326 326 326 326 325 324 325 326 326 326 327 328 327 327 328 328 328 328 328 328 328 328 328 327 327
335 335 334 334 334 334 332 331 330 328 328 328 326 325 325 325 326 326 326 327 327 328 327 327 327 327 328 327 327 328 328 327 328 328 327 327 326 326 326 327 326 326 325 325 326 326 326 326 327 327 327 327 327 327 327 327 327 327 327 327 326 327
334 335 334 334 334 333 332 330 330 328 328 328 326 325 326 326 326 327 327 327 327 327 326 326 327 327 327 327 327 328 328 327 327 328 328 328 327 327 327 327 327 326 326 326 326 326 326 326 327 327 327 327 326 327 327 326 326 326 326 327 326 325
334 335 334 334 334 333 331 330 329 328 328 328 326 325 326 325 325 327 327 326 326 326 326 326 327 327 327 326 326 327 327 327 327 327 327 327 327 327 326 326 326 327 327 328 327 327 326 327 327 327 327 326 326 326 327 326 326 326 325 327 326 324
334 334 335 334 333 332 331 330 329 327 327 327 325 325 325 325 326 327 326 325 324 325 325 325 326 326 326 326 325 326 326 326 326 326 325 325 325 325 326 326 327 327 327 327 327 327 328 327 327 327 327 326 326 325 326 325 326 325 325 326 325 324
334 334 334 334 333 332 330 329 328 328 327 326 326 325 325 325 327 326 325 324 324 324 324 324 325 326 326 326 325 325 325 325 324 324 324 324 323 324 325 325 326 326 326 326 326 327 328 327 328 327 327 327 326 326 326 325 325 325 326 325 324 325
333 334 334 333 332 331 330 329 328 327 327 327 327 326 325 326 326 325 325 324 324 324 325 324 325 325 326 325 324 324 324 323 323 322 322 322 322 323 323 324 325 325 325 325 326 326 327 327 328 328 327 327 327 327 326 325 324 325 325 324 325 325
333 333 333 332 332 330 330 328 326 325 326 327 327 326 326 327 326 325 325 324 324 325 325 324 323 323 323 322 321 321 320 321 320 320 320 321 321 321 321 322 324 324 324 325 325 326 326 326 326 327 327 327 327 327 326 325 325 325 325 324 325 325
332 332 332 332 331 330 329 326 324 325 326 325 326 326 327 328 326 326 325 324 324 324 322 321 319 318 318 318 318 318 318 318 318 318 318 318 318 319 319 320 322 323 323 323 324 325 325 324 324 326 327 327 327 327 326 326 325 325 325 324 324 324
332 332 332 330 329 329 328 326 326 326 324 323 325 326 328 328 327 326 324 322 322 320 320 319 317 315 316 317 317 316 316 316 316 316 316 316 317 318 320 321 322 323 323 323 323 324 324 324 324 325 326 327 327 326 326 326 325 324 325 324 323 323
332 331 330 328 328 329 326 326 327 324 321 323 325 325 326 327 326 324 322 320 319 318 317 316 314 314 316 316 316 316 316 316 316 316 316 317 318 319 321 321 322 324 324 324 323 323 323 323 324 324 325 325 325 324 325 325 324 324 324 324 323 323
330 329 330 327 328 328 325 324 324 321 321 325 325 324 324 325 324 322 320 319 318 317 315 315 314 315 317 317 317 318 318 317 315 315 317 318 319 319 319 320 322 323 324 323 323 322 322 322 323 323 324 325 324 324 325 325 324 324 324 323 323 323
327 327 329 328 328 327 322 320 319 320 324 325 324 323 323 323 322 321 319 319 318 316 316 317 317 317 318 318 319 319 319 317 312 312 317 319 318 317 317 319 322 323 323 322 321 321 321 321 321 322 324 324 324 324 324 324 323 324 323 323 323 322
325 327 329 329 328 324 319 319 319 321 326 326 324 322 321 321 321 320 318 317 318 318 319 320 319 318 318 319 320 320 320 317 310 310 315 317 316 316 316 318 320 321 322 321 319 320 320 319 319 320 323 323 323 324 324 324 323 324 323 323 322 321
328 328 330 330 328 324 321 321 321 323 326 327 326 323 320 320 320 319 319 319 320 320 320 321 318 317 318 320 321 320 319 315 309 308 312 314 315 315 316 317 318 320 321 319 318 319 318 316 316 319 322 322 323 323 324 324 324 323 323 323 321 318
Wind_Speed
24 20 19 18 16 16 14 13 12 11 10 11 13 13 14 15 16 16 16 16 15 14 14 13 13 13 13 13 12 11 10 11 14 16 16 18 21 22 21 20 18 17 15 14 12 10 9 8 8 8 7 8 8 8 9 9 9 9 10 10 11 11
23 20 19 19 17 16 15 14 13 12 11 12 14 14 14 15 15 16 16 15 14 14 13 13 12 13 12 10 10 9 9 10 13 15 17 19 21 22 22 20 19 17 15 14 12 10 10 8 7 7 6 6 7 7 7 8 8 8 9 9 10 10
23 21 19 19 17 16 15 15 14 13 13 14 14 13 13 14 15 14 14 14 13 13 13 13 13 12 10 9 9 8 8 10 12 14 16 18 20 21 22 21 20 18 16 14 12 11 10 9 8 6 6 6 6 6 6 7 7 8 8 8 9 10
23 21 20 19 18 17 17 16 15 15 14 15 14 13 13 13 13 13 12 12 12 13 13 13 12 10 9 8 9 9 9 9 11 13 14 16 19 20 21 21 21 19 17 15 13 12 10 10 8 7 6 6 6 6 6 7 7 7 8 9 9 9
22 21 21 20 19 18 18 17 16 16 14 14 14 13 13 13 13 12 12 12 12 14 14 12 11 11 10 9 9 9 9 9 10 11 12 14 16 17 19 20 20 19 17 16 14 12 11 10 9 7 6 6 6 6 6 6 6 7 7 8 8 8
23 22 21 20 19 18 18 18 17 16 14 13 13 12 12 12 12 12 12 12 12 14 13 12 11 12 11 10 10 10 9 9 9 10 11 12 13 14 15 16 17 17 16 16 14 13 12 11 9 8 7 6 5 5 6 6 6 6 7 7 6 6
21 22 21 19 19 18 19 18 17 16 14 13 13 12 12 12 12 12 12 12 13 13 13 12 11 11 11 10 10 11 10 10 10 11 11 11 11 12 12 13 13 13 13 13 13 12 11 11 10 9 8 6 5 5 5 5 4 5 6 6 5 4
21 21 20 19 18 18 18 18 17 16 14 13 13 12 12 11 11 12 13 13 13 12 11 10 10 11 10 9 9 10 10 10 10 10 11 11 11 11 11 12 12 11 10 10 10 10 10 10 10 10 8 6 5 4 4 4 3 5 5 5 4 3
22 20 19 18 18 18 17 18 18 16 14 13 12 12 11 10 10 11 12 12 13 11 10 10 11 11 10 9 10 10 10 10 9 9 10 10 10 11 11 11 11 10 9 8 7 7 7 8 10 10 9 7 5 4 3 3 3 4 4 4 3 2
22 20 20 18 18 18 18 18 18 16 14 13 13 11 10 10 9 10 12 13 13 11 10 11 12 12 11 10 11 11 10 10 10 9 9 10 10 11 11 11 11 11 10 8 7 6 6 7 8 10 9 7 6 4 3 3 3 4 4 4 3 2
22 21 20 18 18 19 18 18 16 14 14 13 12 11 10 9 9 10 13 14 14 13 12 12 12 12 12 11 11 11 10 10 9 8 9 9 9 10 10 10 10 10 9 9 8 7 7 7 8 9 9 8 7 6 5 4 4 5 5 5 3 2
22 20 19 18 19 19 17 16 14 13 13 12 12 11 9 8 9 12 16 16 15 14 12 11 11 12 12 11 10 10 10 10 9 8 8 9 9 9 9 9 9 9 9 9 9 8 8 8 9 9 10 9 8 7 6 5 6 6 6 5 4 2
22 20 18 17 18 18 17 15 13 12 12 11 11 9 7 8 11 15 17 16 15 14 12 11 11 11 12 11 10 10 9 9 9 8 8 9 9 9 9 9 9 10 10 9 9 9 8 8 9 9 9 9 8 7 7 6 7 7 6 5 5 3
20 18 18 17 17 17 16 15 12 12 12 11 10 7 7 11 15 18 18 16 15 15 14 12 11 11 12 11 10 9 8 9 9 9 10 10 10 10 9 10 9 9 9 9 9 10 9 9 9 8 8 8 7 7 7 6 6 6 5 6 5 3
18 17 17 17 16 16 15 14 13 13 12 12 10 8 11 16 17 18 17 15 14 14 15 13 11 11 11 10 10 8 8 9 9 10 10 11 11 10 9 9 9 9 8 8 9 10 10 9 8 8 7 7 8 7 7 6 6 5 6 7 5 3
18 17 17 16 16 15 15 14 13 13 12 12 10 10 14 18 17 16 16 15 14 14 15 13 12 11 11 11 10 9 8 8 8 8 8 9 9 9 8 8 9 9 8 8 8 9 10 9 8 7 7 7 8 8 8 7 6 6 8 7 4 4
18 19 17 16 16 15 15 14 13 12 12 12 11 12 16 18 16 16 16 15 15 14 14 13 12 12 11 10 9 9 8 8 7 6 6 7 7 8 8 8 9 9 8 8 8 9 10 9 8 7 7 7 8 8 8 8 7 7 8 6 5 4
19 19 18 17 16 15 14 13 13 13 13 13 13 15 17 17 17 17 16 15 15 14 12 11 11 10 10 9 8 8 8 8 6 5 5 6 6 7 7 8 8 8 8 8 8 9 9 9 8 8 8 8 8 9 8 8 8 8 7 6 6 4
20 19 18 17 16 15 15 14 14 14 14 14 15 17 19 18 18 18 16 14 14 13 11 10 9 8 9 8 8 8 8 8 7 5 5 6 6 7 7 7 7 7 7 8 8 8 9 9 9 8 9 9 9 9 8 8 7 7 6 7 6 5
20 19 19 18 17 16 16 15 15 15 15 15 17 19 20 19 18 17 15 13 12 12 10 9 8 8 8 8 9 9 9 8 7 6 6 6 7 7 7 6 6 6 7 7 9 9 9 9 9 9 9 8 8 8 7 7 7 6 5 5 6 6
19 19 18 18 17 17 16 16 16 16 16 17 18 20 21 19 18 16 15 13 12 12 11 10 9 9 9 9 9 9 9 8 7 7 7 7 7 7 7 6 6 7 7 7 8 10 10 9 9 9 9 8 7 6 6 6 5 4 4 5 5 5
19 18 18 18 18 17 16 16 15 15 17 19 19 19 19 18 16 16 15 14 13 12 11 11 10 10 10 9 9 9 9 8 7 6 6 6 6 6 6 6 7 7 8 8 7 9 10 9 8 8 9 8 6 5 4 4 4 4 4 5 4 4
19 20 20 20 20 19 16 15 14 14 17 19 18 17 17 16 15 15 15 14 13 12 11 10 10 10 10 10 9 9 8 8 7 6 6 6 6 6 7 7 7 7 8 8 8 8 9 8 7 7 7 6 5 5 4 3 4 4 3 4 4 4
20 21 21 21 22 19 16 16 16 15 17 19 19 18 16 15 15 14 14 13 12 11 11 11 10 11 11 11 10 9 9 8 7 7 6 6 5 6 6 7 8 7 7 8 8 8 9 8 7 7 6 4 5 5 4 4 5 6 4 2 3 4
21 21 22 23 23 20 18 19 19 19 19 20 21 19 17 15 14 14 13 13 12 12 12 11 11 11 12 11 10 9 9 8 7 7 6 5 5 6 6 7 7 7 7 7 6 6 8 8 7 8 7 5 5 5 5 6 7 8 6 4 4 5
21 22 23 24 23 20 19 20 20 20 20 22 23 19 15 13 13 13 13 13 12 12 11 11 11 11 11 10 9 8 8 8 7 7 6 6 6 7 7 7 7 7 7 7 6 5 7 7 8 9 8 6 4 4 5 7 7 7 8 8 7 6
22 23 24 23 22 20 19 17 17 17 18 21 21 18 14 12 12 13 13 13 12 11 11 10 10 10 10 10 9 8 7 7 7 6 6 6 6 7 7 6 6 6 7 7 7 6 6 7 7 8 9 7 5 3 2 4 7 9 11 10 6 7
23 23 24 23 21 20 17 17 16 16 17 18 18 16 14 13 13 13 13 13 12 11 11 10 10 10 10 9 8 8 7 7 6 6 6 6 6 6 6 6 5 5 6 7 6 6 6 7 7 7 8 8 6 4 1 2 6 9 13 12 9 11
22 23 24 22 21 19 17 16 17 16 17 18 17 15 14 14 14 13 13 13 12 11 11 11 11 10 10 9 8 8 7 7 6 6 6 6 5 6 6 6 5 5 5 5 5 6 6 7 7 7 8 9 8 6 4 4 7 7 10 12 13 14
21 22 22 21 20 19 18 17 17 17 17 18 16 14 14 14 14 13 13 13 12 12 11 11 10 10 10 9 8 8 8 7 7 7 7 6 6 6 5 5 5 5 4 5 5 5 5 6 7 7 8 9 9 7 5 5 7 8 8 10 13 14
20 21 21 20 21 20 19 17 16 16 16 16 16 14 15 15 14 14 13 13 13 12 11 11 10 9 9 9 9 8 8 8 7 7 7 7 8 7 6 5 5 5 4 4 4 3 3 5 6 8 8 8 7 5 5 5 6 9 9 10 14 14
20 20 19 18 21 20 17 16 16 16 16 15 13 13 13 14 14 14 14 14 14 13 11 10 10 10 10 9 9 8 7 7 7 8 8 8 9 8 7 6 6 5 4 3 3 2 2 3 4 5 7 7 6 5 4 4 5 8 9 8 12 14
19 19 17 18 21 20 18 17 16 15 14 13 12 12 12 12 13 14 14 14 13 12 11 11 12 12 12 10 9 8 7 7 7 8 9 9 10 9 7 7 6 6 5 4 4 3 2 2 2 4 5 6 6 5 5 4 4 7 9 9 11 13
16 16 18 20 21 21 18 17 17 15 14 12 12 12 12 13 14 14 13 12 10 10 11 11 11 12 12 10 9 8 7 6 6 7 10 10 10 9 8 8 8 7 7 6 5 5 4 3 2 2 5 6 7 7 6 4 5 7 8 8 10 14
16 19 22 22 21 20 17 16 17 16 13 12 12 12 13 13 13 13 11 10 9 10 10 9 9 9 10 9 8 8 6 4 4 8 10 10 9 8 8 8 8 8 7 6 6 6 4 4 3 2 4 7 8 7 6 6 7 7 6 5 8 12
18 22 24 23 22 20 18 18 18 17 15 14 13 13 13 12 11 11 10 10 9 9 9 8 7 8 9 9 8 7 5 3 4 8 10 9 8 8 7 8 8 8 7 7 7 6 5 4 3 3 4 7 7 7 7 8 8 7 6 6 8 8
19 23 24 24 23 21 20 19 17 17 18 15 13 12 12 11 12 11 10 10 8 8 8 6 7 10 11 11 10 7 4 3 4 7 8 9 8 7 7 7 8 8 8 8 7 6 4 3 3 3 4 5 6 6 8 9 9 8 8 8 8 7
Wind_Direction
179 175 172 172 175 175 176 176 168 159 153 151 150 148 149 150 151 152 156 159 161 162 163 165 158 157 159 152 154 165 167 173 177 177 183 188 188 189 189 192 195 195 191 186 186 181 171 164 152 142 136 132 126 118 113 108 101 95 92 91 90 87
180 174 174 176 176 176 176 175 173 166 158 151 147 145 147 149 150 152 155 159 162 163 165 166 161 159 161 155 158 171 173 178 184 182 183 186 189 192 193 196 199 201 200 193 191 188 180 176 167 154 143 140 135 128 120 111 106 99 93 89 84 80
184 181 183 182 179 179 179 179 178 172 161 151 149 151 153 153 152 152 156 159 161 162 161 162 163 164 164 159 159 164 166 171 176 179 182 185 188 192 195 199 202 205 206 201 197 196 190 185 182 171 158 151 144 139 132 120 110 100 95 88 79 77
190 191 192 188 184 185 183 181 179 175 167 156 156 159 157 155 153 154 158 159 161 163 159 159 164 164 161 157 158 159 160 163 165 168 176 182 186 190 195 200 203 206 208 208 204 203 199 193 194 187 170 158 149 145 141 131 117 104 94 84 79 79
193 195 198 198 196 195 189 185 184 183 177 165 162 160 157 158 158 159 161 161 162 163 161 161 162 158 155 153 153 153 153 152 151 154 163 175 183 189 194 199 204 207 209 212 211 210 205 200 199 192 175 161 156 153 147 138 125 108 92 81 78 79
195 197 200 203 202 200 195 192 191 188 179 170 168 165 161 161 162 165 166 165 162 160 160 159 155 151 149 147 144 141 139 135 132 136 143 160 175 183 191 198 204 208 210 215 217 215 209 202 197 190 178 168 167 165 156 145 128 110 96 85 77 75
195 198 199 202 202 199 196 194 193 188 179 175 175 172 166 161 164 169 169 167 162 158 156 151 146 145 142 140 139 135 132 128 124 127 130 142 159 168 180 189 195 201 208 214 217 216 210 202 195 188 182 177 177 174 164 151 129 112 100 90 80 73
195 199 202 204 204 202 198 194 192 187 182 181 179 177 171 162 164 174 175 168 163 160 156 151 148 148 145 144 145 139 134 129 123 124 127 132 142 151 165 175 175 181 195 202 208 210 207 201 194 188 184 188 186 178 171 158 135 117 105 101 96 77
201 202 206 206 205 207 202 195 193 189 185 185 184 182 176 171 169 177 183 173 164 163 158 154 153 156 157 153 149 142 136 132 128 129 129 131 141 149 158 166 166 167 175 183 192 192 192 191 190 188 187 196 197 185 178 166 143 126 118 119 123 106
205 205 208 204 206 210 205 199 195 188 187 188 187 187 185 185 182 183 185 173 163 161 158 153 152 156 160 160 154 146 140 138 138 140 137 139 150 157 161 166 166 165 164 170 179 174 170 171 178 185 187 192 193 188 181 167 149 137 135 139 147 138
208 206 207 201 206 210 206 205 199 188 188 189 189 194 194 195 201 194 181 167 161 159 157 154 153 155 160 164 161 153 151 150 153 158 154 154 164 167 166 167 168 166 163 169 179 177 169 167 173 183 185 184 183 182 179 165 153 150 153 158 162 140
210 208 205 200 203 206 207 209 204 193 188 189 193 197 200 206 210 191 172 163 160 159 158 156 157 160 162 164 163 160 161 162 166 175 173 169 175 179 174 175 175 171 168 172 184 188 181 175 177 183 184 183 180 178 176 166 161 164 171 175 172 158
208 205 203 202 202 202 206 209 206 196 188 190 191 193 201 196 184 172 164 164 162 160 166 167 163 163 163 164 165 167 170 175 181 187 188 184 184 183 179 176 174 174 176 178 186 190 189 187 185 186 187 185 181 178 175 172 176 179 182 187 184 181
204 200 199 203 202 199 202 206 204 195 188 189 184 182 179 166 162 162 162 167 165 162 168 170 167 165 166 167 168 173 182 190 196 197 197 195 191 187 179 172 169 174 179 181 186 187 190 195 194 193 191 190 186 183 184 184 193 194 186 194 199 195
200 197 198 199 199 197 198 200 198 191 188 186 180 175 168 160 158 161 164 168 169 167 169 171 171 169 171 174 174 181 193 202 205 203 200 197 194 189 179 174 173 175 175 178 181 184 190 195 197 196 193 194 191 188 191 196 206 204 195 201 205 208
197 197 198 195 194 196 194 192 191 189 187 186 181 174 168 163 160 163 167 173 176 175 175 177 176 174 177 179 181 190 197 202 203 200 198 196 195 192 184 182 183 182 177 173 175 183 190 192 190 190 193 197 195 193 195 201 207 201 202 207 203 206
198 199 198 193 191 193 190 186 186 186 185 187 186 178 170 165 163 166 173 179 184 183 183 184 182 182 184 183 189 198 199 199 197 194 194 195 193 191 188 188 190 191 184 173 174 184 189 188 183 183 190 192 192 196 196 199 202 199 205 209 208 208
200 199 195 192 191 190 187 184 183 183 187 189 186 180 174 168 168 172 177 182 188 190 190 190 188 190 193 195 201 206 205 201 197 195 193 188 181 181 185 185 188 191 186 178 176 185 190 188 185 183 185 187 191 194 193 196 197 199 205 206 210 198
201 198 193 190 191 191 186 183 183 185 187 186 183 180 176 171 172 176 178 182 188 192 193 193 196 199 200 204 208 210 209 205 204 200 190 178 171 174 180 184 188 184 184 184 178 180 185 185 186 186 188 190 190 191 190 194 196 197 198 198 203 180
201 199 194 190 193 194 188 183 184 184 181 177 175 175 174 173 175 178 181 183 186 191 194 200 207 208 203 202 203 207 206 207 210 203 189 176 172 176 180 185 191 186 185 189 185 178 177 182 187 187 190 192 188 187 185 187 192 192 181 181 191 174
201 199 196 193 195 197 190 185 183 180 176 172 168 169 172 174 178 181 183 185 187 193 200 206 212 210 204 202 203 204 205 209 213 206 194 185 182 184 186 188 193 191 185 189 194 183 175 181 189 187 185 183 184 179 174 176 173 166 164 172 183 178
199 196 197 198 201 201 193 187 184 178 175 173 168 168 173 176 179 183 185 188 191 198 204 208 210 207 202 203 204 204 205 210 212 209 203 197 196 195 194 193 194 194 188 187 194 189 179 178 184 189 183 174 170 155 144 154 142 134 158 173 176 181
201 196 195 199 205 204 191 183 181 176 174 174 170 169 173 176 181 185 189 193 197 202 206 206 205 201 199 200 200 200 205 210 208 206 203 203 204 202 197 193 191 193 190 186 189 192 187 182 181 181 177 171 168 154 135 133 130 121 143 176 181 179
204 198 195 199 204 201 185 176 174 172 171 173 172 169 172 179 183 187 192 197 201 203 203 200 195 194 195 195 193 194 199 201 201 201 196 194 199 200 196 194 191 187 188 192 196 197 193 189 181 172 172 176 178 171 155 145 134 116 113 162 175 159
205 198 197 200 200 194 183 175 170 168 171 173 174 175 176 180 183 186 191 195 198 196 192 189 188 190 189 187 187 188 189 191 195 196 193 192 193 194 193 194 193 185 183 189 199 208 201 190 179 175 174 171 171 173 171 162 141 123 114 107 119 139
207 199 200 201 196 190 185 179 173 170 173 174 177 180 180 182 183 185 186 188 188 185 183 181 182 185 184 182 181 180 183 185 188 192 193 195 191 186 188 190 190 187 184 184 193 207 207 198 189 182 173 164 160 154 163 168 151 136 127 115 121 140
211 205 204 200 192 188 184 181 178 176 178 180 181 182 181 183 184 183 181 181 181 178 178 179 178 181 181 177 174 174 177 176 178 181 178 179 173 167 174 182 185 189 191 195 199 196 199 208 206 194 185 181 176 151 134 167 159 149 139 129 134 141
213 208 203 197 189 186 182 178 177 179 183 184 183 184 184 182 181 182 180 178 178 177 177 177 175 176 176 174 171 169 171 169 173 177 172 171 165 158 164 175 185 195 199 204 203 191 193 207 214 217 211 208 208 215 270 165 161 159 152 145 144 143
212 205 199 193 183 179 178 175 174 176 181 182 182 187 188 182 179 181 181 179 179 178 177 175 172 171 172 173 173 170 171 174 179 181 179 182 177 167 167 175 188 203 212 214 208 197 198 204 215 232 235 233 231 235 246 174 160 167 162 153 146 147
210 201 195 188 176 174 173 172 173 173 179 182 181 185 186 182 181 181 182 181 178 176 176 175 172 171 174 178 178 176 176 179 184 187 190 193 193 189 184 184 190 200 210 214 213 209 209 211 214 225 236 240 237 235 236 196 170 171 168 157 152 152
210 200 194 184 173 172 170 171 174 172 178 182 179 183 187 184 183 183 184 181 176 176 177 178 177 175 177 179 178 175 176 181 190 196 201 205 203 199 196 192 192 197 206 209 211 214 223 228 221 217 222 226 231 239 239 226 196 182 176 165 161 159
206 197 192 179 171 171 167 168 170 171 177 180 176 183 193 192 188 186 185 180 176 177 179 181 181 178 176 175 174 176 180 184 191 197 202 204 201 196 189 183 184 188 189 186 186 191 213 233 222 212 209 207 220 227 210 220 216 190 183 176 166 159
200 191 182 174 174 173 168 164 165 166 171 176 175 177 189 197 195 188 184 182 179 177 179 180 178 175 173 173 173 172 171 171 176 184 188 190 189 185 176 169 164 156 148 142 137 129 128 142 161 183 189 191 199 185 162 187 207 189 186 181 165 153
193 187 178 174 177 177 173 170 171 170 164 169 178 178 183 193 194 186 182 183 180 174 174 170 167 169 171 172 168 157 151 150 161 170 174 176 177 173 166 158 148 139 131 122 119 119 112 102 105 159 174 175 174 164 158 175 175 172 178 178 169 158
191 188 178 174 177 177 176 174 175 174 166 168 179 181 183 187 189 185 182 179 172 167 165 154 152 164 172 175 166 151 143 135 154 167 168 169 171 170 163 154 147 138 132 125 122 121 112 95 81 104 164 172 167 162 165 160 144 146 157 170 173 165
192 187 179 177 177 173 171 170 171 173 173 173 173 175 179 184 191 189 181 172 165 162 158 147 152 166 171 174 165 152 146 131 141 159 166 168 169 171 165 156 153 147 142 139 133 127 122 108 89 94 158 175 172 170 168 153 140 140 144 158 164 159
187 184 183 181 178 175 173 172 171 174 177 175 171 171 175 183 190 186 173 164 162 160 157 156 165 165 165 166 159 151 150 138 133 149 163 171 174 173 165 158 153 148 148 148 140 135 141 138 116 111 147 174 181 179 169 156 148 141 135 148 154 141